User: anonymous   Login
Location: Astronomy Club of Akron Observatory
(40.9700°N, 81.5606°W)
Time: 00:28:30
(UTC-04:00)
Language:

Hubble Space Telescope - Orbit

View from above orbital plane
View from above orbital plane
View from above satellite
View from above satellite

Ground track
Ground track

The orbit data is extracted from the following two-line orbital elements,

1 20580U 90037B   18175.85488162  .00000464  00000-0  17432-4 0  9993
2 20580  28.4702  64.4177 0002614 219.5270 229.6038 15.09056025346622
Epoch (UTC): 24 June 2018 20:31:01
Eccentricity: 0.0002614
inclination: 28.4702°
perigee height: 537 km
apogee height: 541 km
right ascension of ascending node: 64.4177°
argument of perigee: 219.5270°
revolutions per day: 15.09056025
mean anomaly at epoch: 229.6038°
orbit number at epoch: 34662

The dashed part of the orbit path shows where the satellite is in the earth's shadow,  

DLR